Probability
0 0 0 0 0 0 0 0 1 3 6 9 11 13 17 20 23 26 32 36 35 34 36 40 43 45 47 45 45 45 46 48 48 46 46 45 42 41 42 40 37 38 39 38
0 0 0 0 0 0 0 0 1 4 8 11 14 17 19 22 24 27 31 34 36 35 36 40 45 48 47 47 49 50 49 49 47 46 46 46 43 42 44 42 40 40 39 37
0 0 0 0 0 0 0 0 1 5 10 13 17 19 20 20 22 25 28 31 32 33 35 37 45 49 47 47 51 53 52 50 49 47 47 47 46 46 47 46 44 43 42 40
0 0 0 0 0 0 0 0 2 5 10 14 17 19 18 18 19 23 26 28 29 31 33 35 41 46 46 45 47 50 51 51 50 48 48 49 50 50 51 50 47 46 46 46
1 0 0 0 0 0 0 1 2 4 8 12 16 17 16 18 21 24 27 29 31 32 36 39 42 46 47 46 46 47 48 49 50 50 51 53 54 54 54 53 51 49 49 50
2 1 0 0 0 0 0 2 3 5 8 13 17 18 19 22 25 26 30 34 36 39 43 45 44 46 47 47 46 45 46 48 53 56 57 57 57 56 55 55 54 52 52 53
3 2 1 0 0 2 4 6 7 9 13 19 24 25 26 28 29 31 35 39 40 44 49 49 46 45 46 47 46 43 45 51 56 58 58 57 57 56 57 57 56 56 55 54
3 3 3 3 2 4 8 10 11 13 18 26 31 31 32 33 35 36 39 40 42 47 51 51 49 48 47 48 46 45 47 52 56 58 55 53 54 54 55 56 55 55 53 51
5 5 6 6 5 5 7 9 9 11 17 26 29 30 32 34 36 38 40 41 42 46 50 51 51 51 51 51 50 49 49 50 52 53 51 50 50 48 50 51 49 48 45 42
9 7 6 6 5 4 4 5 6 8 14 21 25 29 32 34 36 38 40 41 42 46 49 50 51 52 54 54 54 54 51 48 48 48 48 47 45 42 41 42 42 40 38 36
12 10 9 8 6 4 3 4 5 8 14 21 26 31 35 37 38 39 39 40 43 47 49 49 50 52 54 54 55 55 51 45 42 42 44 43 39 33 30 29 28 28 28 29
11 13 14 12 7 5 4 4 6 11 18 23 27 30 33 36 38 38 37 39 43 46 47 47 48 49 51 53 54 53 49 42 37 37 39 39 34 27 20 15 12 11 13 15
12 14 15 13 10 7 6 5 8 13 19 23 26 27 30 33 36 37 38 38 41 43 43 42 43 45 47 49 51 49 45 38 34 34 36 35 31 25 19 11 5 2 2 3
12 13 13 12 12 10 7 8 12 16 21 25 26 27 29 33 36 37 38 37 36 38 37 36 37 40 42 43 44 43 39 34 32 34 34 32 29 25 21 18 13 7 3 1
11 12 12 12 13 12 10 11 16 19 23 27 28 27 29 32 35 35 35 33 31 31 29 28 30 33 35 35 36 36 33 30 31 32 31 28 24 21 20 19 18 14 8 4
8 9 10 11 14 14 13 15 19 21 23 25 26 27 29 30 30 30 30 29 27 26 25 24 24 25 26 27 29 30 30 26 25 26 25 21 19 19 18 17 16 14 11 7
5 6 9 12 16 18 18 19 20 20 20 21 23 26 28 28 26 25 24 24 25 25 24 23 21 20 20 21 22 24 23 20 17 18 20 18 17 18 19 16 13 12 9 7
2 5 8 12 17 21 21 20 20 20 21 22 25 27 28 26 25 23 21 20 21 22 21 19 15 13 13 14 15 15 15 15 14 15 17 17 16 18 19 15 12 10 8 6
2 4 7 11 17 21 21 20 21 22 23 26 26 27 27 26 25 23 21 18 17 16 16 12 7 6 7 8 8 9 9 11 12 13 14 14 14 15 15 12 10 9 7 4
4 6 9 11 15 18 20 20 21 23 25 27 27 27 26 25 23 22 20 18 16 15 13 7 3 2 3 4 5 5 6 7 8 9 11 12 12 11 10 9 10 10 7 4
5 7 10 12 14 18 21 22 21 22 24 26 27 26 24 22 20 20 18 16 15 13 8 4 2 2 1 2 3 3 4 4 5 7 8 10 10 9 7 8 9 9 7 4
9 12 14 16 18 21 23 22 20 19 21 23 24 22 20 19 18 17 14 12 10 7 3 1 1 1 0 1 3 3 3 3 4 5 6 7 8 8 6 6 7 7 7 6
18 19 19 19 20 22 23 20 17 16 18 20 21 19 18 17 16 14 10 7 5 2 0 0 0 0 0 1 3 4 4 3 4 4 4 5 6 6 5 6 6 6 6 6
21 20 19 19 20 22 22 20 17 15 16 17 18 17 16 15 14 11 7 3 1 0 0 0 0 0 1 2 3 3 4 3 3 3 3 4 4 4 4 4 4 4 4 4
17 16 17 19 20 21 21 20 18 16 15 14 13 13 13 13 11 9 6 3 1 0 0 0 0 0 2 3 4 3 3 3 3 3 3 3 3 3 2 1 2 2 3 3
14 15 17 18 19 18 18 17 16 15 13 12 10 10 11 11 10 7 5 3 1 1 0 0 0 1 2 3 3 3 4 3 3 3 3 3 3 2 1 0 0 1 2 2
14 15 16 17 16 15 15 14 14 13 11 11 10 11 12 12 9 7 5 3 2 2 1 0 1 2 3 3 3 4 4 4 3 3 3 3 3 1 0 0 0 0 1 1
Wind_Speed
14 13 13 13 12 12 12 12 11 7 6 3 0 1 3 5 4 4 4 4 4 3 3 1 2 3 3 4 4 5 6 6 6 5 4 4 4 4 4 3 3 3 3 3
13 14 14 15 12 13 13 12 11 8 6 2 2 2 4 4 3 3 3 3 4 3 3 2 2 3 3 3 4 4 5 5 5 5 4 4 4 4 4 3 3 3 3 3
13 13 14 15 12 11 11 11 10 7 4 1 2 2 2 2 2 2 2 2 3 2 3 3 3 2 3 3 4 4 4 4 5 5 5 4 5 4 4 4 3 3 3 3
12 14 17 10 9 10 11 10 9 4 2 1 1 1 2 2 3 3 1 1 2 2 2 2 3 3 3 3 4 4 4 4 4 5 5 4 4 4 4 3 3 3 3 3
10 13 14 12 9 8 8 8 6 4 2 0 0 1 2 5 5 4 2 2 2 2 2 3 2 2 3 3 3 4 4 4 4 4 4 5 4 4 3 3 3 3 3 3
10 12 13 9 8 6 7 7 2 1 2 1 0 2 2 4 4 3 3 3 3 2 3 3 3 2 2 3 3 3 3 3 4 4 4 4 4 4 3 3 3 3 3 3
12 12 10 7 5 5 7 2 4 3 3 3 2 2 3 4 4 3 4 4 4 3 3 3 2 2 1 1 2 2 2 3 3 3 4 4 4 3 3 4 3 3 3 3
10 12 7 4 2 2 3 4 4 4 4 5 5 4 4 4 3 3 3 4 3 3 3 3 2 2 1 0 0 1 1 2 3 3 3 3 3 3 3 4 3 4 3 3
7 5 1 3 3 2 2 3 4 3 3 4 3 1 2 2 2 2 3 2 3 3 3 3 2 1 1 1 1 1 1 2 2 3 3 3 3 4 3 3 3 3 3 3
5 3 2 3 3 3 3 3 4 3 1 0 2 2 1 2 2 2 2 2 2 2 2 1 1 1 0 0 1 1 2 2 2 2 3 2 2 3 3 3 3 3 3 3
5 4 3 2 2 4 3 3 4 4 3 2 2 1 1 2 2 2 2 1 1 1 2 1 1 0 0 0 1 1 2 2 2 3 3 1 1 0 1 1 2 3 2 1
4 2 3 3 4 5 4 3 4 4 3 2 1 1 1 1 2 2 2 1 0 1 2 1 1 1 0 0 1 1 2 2 3 2 2 2 3 2 4 2 2 3 2 1
4 4 4 5 5 5 4 4 3 3 3 2 1 2 1 1 2 2 2 2 2 1 1 1 1 1 1 1 1 2 2 2 2 2 2 2 2 2 2 2 2 3 2 2
6 4 4 4 5 5 3 3 3 3 2 1 1 2 2 2 2 2 2 1 1 1 1 1 1 0 0 1 1 2 2 2 2 1 1 1 2 2 2 2 2 2 1 3
5 4 4 4 4 4 3 2 2 1 1 0 1 2 2 2 2 2 1 1 1 0 1 1 1 1 1 1 1 2 2 2 1 1 1 1 1 1 2 2 1 2 2 2
6 5 5 5 5 4 3 2 2 1 0 1 1 1 1 2 2 2 2 1 1 1 1 1 1 0 1 2 2 2 1 1 2 2 2 1 1 1 1 1 1 1 1 2
6 5 4 5 5 5 4 3 1 0 1 2 2 1 1 1 2 2 1 1 1 2 2 2 1 1 1 2 3 2 2 1 2 2 2 1 1 2 2 1 1 1 1 2
6 6 4 4 4 4 4 2 1 1 1 2 1 1 1 1 1 2 1 1 1 2 1 1 1 1 1 2 2 3 2 2 2 1 1 1 2 2 2 1 1 1 1 2
5 5 4 3 3 3 3 1 0 1 1 1 1 1 1 1 1 1 1 1 1 1 1 1 0 2 1 1 2 2 3 3 2 1 1 1 2 2 1 1 1 1 0 1
5 5 3 3 3 3 2 1 1 1 0 1 1 1 1 1 1 1 1 1 1 0 1 1 1 1 1 1 3 3 3 3 2 1 1 2 2 2 2 2 2 1 0 1
5 5 3 3 3 3 2 1 0 0 1 1 2 2 1 1 1 1 1 1 1 2 0 1 1 1 1 2 4 3 2 2 2 2 2 1 1 1 2 2 2 1 1 2
4 3 3 3 3 3 2 1 1 1 1 1 2 2 2 2 1 0 0 0 1 2 1 1 0 2 2 3 3 3 2 2 2 1 1 2 1 1 2 2 2 2 2 2
4 4 4 3 4 3 2 1 0 1 1 1 1 1 1 1 1 1 1 0 1 0 1 1 2 1 2 4 4 3 2 2 2 1 1 2 2 1 2 3 3 2 2 2
3 3 3 3 3 2 2 1 1 0 1 1 1 1 1 1 1 0 1 2 2 0 1 1 1 2 4 3 3 2 2 2 2 2 2 2 1 2 2 3 2 2 1 2
2 2 2 2 2 1 1 1 0 0 1 0 0 0 1 0 0 1 1 1 2 1 1 2 4 4 4 3 2 2 1 2 2 2 2 2 2 2 2 2 1 1 1 1
2 2 2 2 2 1 1 1 1 1 1 1 0 1 0 1 1 1 1 0 0 1 1 2 2 4 3 3 2 1 1 2 2 2 2 2 2 2 2 2 2 2 1 1
1 1 1 1 1 1 1 1 1 1 1 0 1 1 0 0 0 0 1 1 1 1 1 1 2 2 2 2 2 2 1 1 2 2 2 2 2 2 2 2 2 1 1 1
Wind_Direction
263 269 271 266 268 269 267 273 276 280 282 279 100 163 128 115 114 111 122 124 113 107 111 140 150 149 154 169 173 174 169 176 181 184 181 179 177 180 180 189 201 189 200 216
260 263 266 270 265 270 270 268 266 265 266 270 73 83 101 104 117 119 113 132 130 127 130 177 177 161 158 171 165 164 171 177 173 175 181 184 181 185 186 191 200 195 205 213
264 257 259 257 256 263 266 269 270 267 280 325 74 69 112 129 136 127 118 132 121 143 161 169 163 158 167 166 155 156 171 176 172 177 184 188 191 187 194 195 199 202 206 208
258 264 260 262 257 258 262 266 273 266 237 231 139 130 85 94 96 101 134 122 113 157 129 131 138 152 162 163 157 167 175 180 180 184 187 186 191 195 197 196 204 210 211 205
255 256 258 264 268 262 265 268 277 281 273 177 189 116 103 79 72 70 63 82 96 99 112 113 113 129 149 163 170 179 182 184 186 188 190 187 193 197 196 199 205 212 207 192
248 256 260 266 276 286 276 255 291 338 344 6 27 259 98 71 68 60 60 65 70 78 94 105 111 120 164 174 173 185 184 186 189 189 195 195 194 194 195 201 210 215 205 178
244 252 258 285 310 307 268 309 10 19 16 15 16 22 79 80 77 68 61 63 66 66 85 98 115 135 187 191 185 195 180 176 186 191 197 194 189 189 194 211 215 211 191 178
245 249 252 324 314 329 4 0 359 16 27 39 39 52 78 77 75 80 77 68 61 55 65 86 112 128 146 174 143 141 162 180 187 193 211 196 187 198 205 217 211 205 191 186
259 259 11 5 8 30 9 348 346 0 25 37 32 14 92 106 100 96 91 81 72 69 63 58 53 72 129 150 160 174 194 211 204 201 209 196 191 199 201 209 211 209 192 194
256 233 257 279 310 338 346 337 325 323 337 284 247 245 176 132 119 106 91 95 91 95 94 72 43 23 67 118 163 203 216 220 203 206 216 213 204 200 201 207 214 209 203 208
264 283 286 263 294 302 304 312 312 311 293 254 256 233 149 119 122 119 100 81 92 118 122 124 118 52 294 164 177 235 239 235 224 219 210 194 163 131 196 193 208 205 214 184
258 294 295 283 282 289 288 286 286 288 297 266 246 247 205 142 128 130 142 141 164 152 147 148 148 160 213 190 184 220 244 247 238 225 191 183 161 106 41 56 80 100 98 135
301 300 293 294 296 293 280 277 279 270 266 266 215 180 168 165 163 159 165 173 182 176 166 160 153 165 169 242 206 227 247 261 259 238 198 192 182 170 154 97 77 75 101 140
336 325 311 309 299 295 274 273 267 258 255 247 205 175 180 187 177 172 179 186 161 146 186 191 151 136 279 274 226 237 254 262 273 262 244 203 203 198 186 182 173 165 142 163
327 322 318 315 312 302 289 279 273 267 243 164 158 171 171 158 146 138 141 138 114 143 185 163 98 27 357 313 280 259 264 267 276 274 268 251 235 231 217 212 190 156 141 153
306 309 324 328 327 317 300 277 269 262 102 89 70 70 105 125 125 131 131 141 158 148 114 98 92 334 324 307 290 269 259 251 258 269 262 262 265 272 266 234 203 152 167 163
300 303 310 317 322 317 314 311 302 268 121 112 107 106 107 111 116 110 110 107 85 76 75 75 37 7 346 321 301 295 296 266 237 245 250 268 281 277 271 266 255 214 204 161
286 291 294 296 304 312 314 318 336 357 50 106 128 145 128 133 135 102 82 88 90 86 85 90 66 351 333 349 327 313 303 285 271 262 245 247 260 260 256 245 247 247 240 162
288 290 296 304 304 298 276 268 60 58 52 88 132 124 101 127 134 147 140 160 190 193 131 82 199 258 295 28 317 277 278 276 272 290 296 270 260 266 264 259 262 263 200 163
289 297 299 304 307 305 300 20 50 71 88 138 119 112 110 126 131 156 170 212 227 193 116 128 226 263 286 338 297 281 288 293 288 277 261 257 268 270 270 266 266 259 223 186
296 287 287 310 316 316 324 10 89 123 93 107 131 146 155 169 188 213 232 244 101 95 141 222 237 285 340 317 275 269 277 287 281 280 283 275 273 279 283 284 270 247 223 217
307 321 338 335 332 336 357 12 74 98 110 128 142 164 176 185 193 201 25 216 112 104 221 260 20 59 0 301 274 271 267 270 274 292 303 300 296 287 280 277 268 251 233 229
354 357 352 344 338 339 349 358 89 124 138 151 165 228 240 227 231 220 232 125 106 88 283 8 79 82 309 286 285 283 286 297 303 304 302 292 288 288 281 278 278 276 274 267
2 1 351 345 343 346 346 339 347 141 185 204 205 216 240 248 257 223 105 107 96 133 342 79 168 259 274 269 274 289 310 315 308 295 281 269 263 264 268 268 270 264 269 279
347 343 335 334 332 324 341 348 354 33 297 271 188 179 260 109 45 39 64 100 134 176 280 231 223 247 259 271 279 288 310 318 311 313 307 312 310 301 287 293 302 290 277 283
341 324 334 324 325 319 289 267 252 238 256 270 330 295 253 124 121 127 139 180 191 223 253 257 241 231 249 263 274 271 264 260 264 269 289 303 307 308 316 327 317 311 307 299
324 322 334 306 303 299 308 311 312 296 279 316 324 303 296 318 128 66 341 298 298 307 307 290 294 281 276 288 300 298 295 306 325 338 332 330 323 319 325 322 310 308 302 285